EUTELSAT KONNECT

Last updated on Sun Jun 21 2026 00:03:08 GMT+0000 (Coordinated Universal Time)

1 45027U 20005B 26171.39337050 .00000044 00000+0 00000+0 0 9998 2 45027 0.0730 95.2851 0001378 136.3918 185.7438 1.00268395 24365
UTC large
Height (km)
Speed (km/s)
/
Latitude / Longitude
Inclination (degrees)
Orbital Period (minutes)
Azimuth
Elevation
Range (km)
Doppler Factor

Next 0 passes for location: London (51.5072 / 0.1276)

No passes found over London.
EUTELSAT KONNECT